MSC Paola — 9HA2581 — position and weather

sailwx.info

Track history (hours):
 
Tides and Currents Weather Stations Pressure Air Temp Water Temp Dewpoint Dewpoint Depression Visibility Wind Speed Wind Dir Waves Ship Positions

MSC Paola

Last reported at 2014-Sep-02 18:31 UTC. Time now 2014-Sep-02 19:03 UTC.
Position N 51°20' E 004°20'.

Length 243 m; draft 8.9 m.

Type: Ship (hazmat cat A). MMSI: 248931000.

Date/timePositionNaut miles runAvg speedWind from/ knotsBaromVisibWave heightAir tempDewpointWater temp
2014-Sep-02 18:31N 51°20' E 004°20'0 0.0
2014-Sep-02 17:31N 51°20' E 004°20'0 0.0
2014-Sep-02 16:31N 51°20' E 004°20'0 0.0
2014-Sep-02 15:31N 51°20' E 004°20'1 1.4
2014-Sep-02 14:33N 51°20' E 004°18'1 1.1
2014-Sep-02 13:33N 51°21' E 004°17'0 0.4
2014-Sep-02 12:34N 51°21' E 004°17'6 5.9
2014-Sep-02 11:33N 51°22' E 004°07'7 6.6
2014-Sep-02 10:33N 51°23' E 003°57'9 9.3
2014-Sep-02 09:33N 51°25' E 003°42'10 9.8
2014-Sep-02 08:34N 51°25' E 003°27'1615.8
2014-Sep-02 07:34N 51°25' E 003°01'1715.6
2014-Sep-02 06:26N 51°41' E 003°12'8 9.6
2014-Sep-02 05:33N 51°49' E 003°15'7 6.4
2014-Sep-02 04:29N 51°56' E 003°18'1210.5
2014-Sep-02 03:23N 52°07' E 003°25'2713.1
2014-Sep-02 01:19N 52°31' E 003°44'1213.6
2014-Sep-02 00:24N 52°42' E 003°54'1213.8
2014-Sep-01 23:33N 52°53' E 003°58'3013.1
2014-Sep-01 21:15N 53°17' E 004°29'32413.1
2014-Aug-31 20:33N 57°42' E 009°58'1413.3
2014-Aug-31 19:31N 57°46' E 010°22'1212.6
2014-Aug-31 18:34N 57°50' E 010°44'1312.8
2014-Aug-31 17:34N 57°41' E 011°01'1413.8
2014-Aug-31 16:33N 57°32' E 011°21'1818.4
2014-Aug-31 15:34N 57°15' E 011°35'1414.1
2014-Aug-31 14:33N 57°02' E 011°45'1414.1
2014-Aug-31 13:33N 56°49' E 011°52'1312.9
2014-Aug-31 12:33N 56°37' E 011°45'12311.2
2014-Aug-31 01:34N 54°35' E 011°15'1414.1
2014-Aug-31 00:33N 54°29' E 011°37'1313.3
2014-Aug-30 23:33N 54°26' E 011°59'1411.0
2014-Aug-30 22:17N 54°36' E 012°17'1013.5
2014-Aug-30 21:33N 54°42' E 012°30'1313.2
2014-Aug-30 20:33N 54°49' E 012°50'1312.8
2014-Aug-30 19:33N 54°53' E 013°11'1312.8
2014-Aug-30 18:34N 54°58' E 013°31'1312.8
2014-Aug-30 17:33N 55°03' E 013°52'1212.4
2014-Aug-30 16:34N 55°09' E 014°10'1313.2
2014-Aug-30 15:33N 55°20' E 014°25'1212.4
2014-Aug-30 14:33N 55°28' E 014°40'1312.6
2014-Aug-30 13:33N 55°34' E 014°59'1313.0
2014-Aug-30 12:33N 55°40' E 015°21'13813.6
2014-Aug-30 02:22N 56°41' E 019°03'1114.0
2014-Aug-30 01:33N 56°50' E 019°14'19613.7
2014-Aug-29 11:14N 59°32' E 022°45'913.8
2014-Aug-29 10:33N 59°35' E 023°02'1414.0
2014-Aug-29 09:34N 59°39' E 023°29'1414.1
2014-Aug-29 08:33N 59°43' E 023°56'3614.5
2014-Aug-29 06:06N 59°52' E 025°04'1012.8
2014-Aug-29 05:22N 59°53' E 025°23'1414.4
2014-Aug-29 04:22N 59°55' E 025°52'1518.3
2014-Aug-29 03:34N 59°59' E 026°20'1413.7
2014-Aug-29 02:34N 60°01' E 026°47'1412.7
2014-Aug-29 01:29N 60°03' E 027°14'1413.7
2014-Aug-29 00:29N 60°10' E 027°38'7013.0
2014-Aug-28 19:04N 59°56' E 029°56'510.3
2014-Aug-28 18:33N 59°54' E 030°06'4 0.3
2014-Aug-28 06:08N 59°52' E 030°12'0 0.0
2014-Aug-27 14:16N 59°52' E 030°12'103 4.9
2014-Aug-26 17:17N 59°59' E 026°48'1216.0
2014-Aug-26 16:32N 59°57' E 026°23'4117.2
2014-Aug-26 14:10N 59°47' E 025°05'1118.0
2014-Aug-26 13:33N 59°45' E 024°44'4017.8
2014-Aug-26 11:17N 59°34' E 023°27'34916.9
2014-Aug-25 14:33N 55°36' E 015°29'2121.3
2014-Aug-25 13:33N 55°29' E 014°54'2020.0
2014-Aug-25 12:33N 55°15' E 014°27'2019.6
2014-Aug-25 11:31N 54°60' E 014°05'1919.8
2014-Aug-25 10:34N 54°55' E 013°33'1818.3
2014-Aug-25 09:34N 54°49' E 013°03'1817.7
2014-Aug-25 08:34N 54°43' E 012°34'1716.9
2014-Aug-25 07:34N 54°30' E 012°14'1515.0
2014-Aug-25 06:33N 54°24' E 011°50'10911.9
2014-Aug-24 21:21N 56°12' E 011°18'6316.4
2014-Aug-24 17:30N 57°15' E 011°31'1718.0
2014-Aug-24 16:33N 57°30' E 011°18'1919.0
2014-Aug-24 15:33N 57°43' E 010°51'1716.9
2014-Aug-24 14:33N 57°46' E 010°21'3919.5
2014-Aug-24 12:33N 57°33' E 009°11'2118.8
2014-Aug-24 11:27N 57°22' E 008°39'8918.0
2014-Aug-24 06:28N 56°02' E 007°26'1718.4
2014-Aug-24 05:33N 55°47' E 007°15'1918.7
2014-Aug-24 04:33N 55°29' E 007°04'1918.6
2014-Aug-24 03:33N 55°11' E 006°57'1918.9
2014-Aug-24 02:33N 54°53' E 007°05'1818.4
2014-Aug-24 01:33N 54°35' E 007°15'2019.5
2014-Aug-24 00:33N 54°16' E 007°25'1918.5
2014-Aug-23 23:33N 54°00' E 007°40'1010.3
2014-Aug-23 22:33N 53°53' E 007°52'1414.4
2014-Aug-23 21:34N 53°45' E 008°13'1414.4
2014-Aug-23 20:34N 53°36' E 008°31'2 1.6
2014-Aug-23 19:32N 53°34' E 008°32'  
Track history (hours):
 
Tides and Currents Weather Stations Pressure Air Temp Water Temp Dewpoint Dewpoint Depression Visibility Wind Speed Wind Dir Waves Ship Positions

MSC Paola

Last reported at 2014-Sep-02 18:31 UTC. Time now 2014-Sep-02 19:03 UTC.
Position N 51°20' E 004°20'.

Length 243 m; draft 8.9 m.

Type: Ship (hazmat cat A). MMSI: 248931000.

Date/timePositionNaut miles runAvg speedWind from/ knotsBaromVisibWave heightAir tempDewpointWater temp
2014-Sep-02 18:31N 51°20' E 004°20'0 0.0
2014-Sep-02 17:31N 51°20' E 004°20'0 0.0
2014-Sep-02 16:31N 51°20' E 004°20'0 0.0
2014-Sep-02 15:31N 51°20' E 004°20'1 1.4
2014-Sep-02 14:33N 51°20' E 004°18'1 1.1
2014-Sep-02 13:33N 51°21' E 004°17'0 0.4
2014-Sep-02 12:34N 51°21' E 004°17'6 5.9
2014-Sep-02 11:33N 51°22' E 004°07'7 6.6
2014-Sep-02 10:33N 51°23' E 003°57'9 9.3
2014-Sep-02 09:33N 51°25' E 003°42'10 9.8
2014-Sep-02 08:34N 51°25' E 003°27'1615.8
2014-Sep-02 07:34N 51°25' E 003°01'1715.6
2014-Sep-02 06:26N 51°41' E 003°12'8 9.6
2014-Sep-02 05:33N 51°49' E 003°15'7 6.4
2014-Sep-02 04:29N 51°56' E 003°18'1210.5
2014-Sep-02 03:23N 52°07' E 003°25'2713.1
2014-Sep-02 01:19N 52°31' E 003°44'1213.6
2014-Sep-02 00:24N 52°42' E 003°54'1213.8
2014-Sep-01 23:33N 52°53' E 003°58'3013.1
2014-Sep-01 21:15N 53°17' E 004°29'32413.1
2014-Aug-31 20:33N 57°42' E 009°58'1413.3
2014-Aug-31 19:31N 57°46' E 010°22'1212.6
2014-Aug-31 18:34N 57°50' E 010°44'1312.8
2014-Aug-31 17:34N 57°41' E 011°01'1413.8
2014-Aug-31 16:33N 57°32' E 011°21'1818.4
2014-Aug-31 15:34N 57°15' E 011°35'1414.1
2014-Aug-31 14:33N 57°02' E 011°45'1414.1
2014-Aug-31 13:33N 56°49' E 011°52'1312.9
2014-Aug-31 12:33N 56°37' E 011°45'12311.2
2014-Aug-31 01:34N 54°35' E 011°15'1414.1
2014-Aug-31 00:33N 54°29' E 011°37'1313.3
2014-Aug-30 23:33N 54°26' E 011°59'1411.0
2014-Aug-30 22:17N 54°36' E 012°17'1013.5
2014-Aug-30 21:33N 54°42' E 012°30'1313.2
2014-Aug-30 20:33N 54°49' E 012°50'1312.8
2014-Aug-30 19:33N 54°53' E 013°11'1312.8
2014-Aug-30 18:34N 54°58' E 013°31'1312.8
2014-Aug-30 17:33N 55°03' E 013°52'1212.4
2014-Aug-30 16:34N 55°09' E 014°10'1313.2
2014-Aug-30 15:33N 55°20' E 014°25'1212.4
2014-Aug-30 14:33N 55°28' E 014°40'1312.6
2014-Aug-30 13:33N 55°34' E 014°59'1313.0
2014-Aug-30 12:33N 55°40' E 015°21'13813.6
2014-Aug-30 02:22N 56°41' E 019°03'1114.0
2014-Aug-30 01:33N 56°50' E 019°14'19613.7
2014-Aug-29 11:14N 59°32' E 022°45'913.8
2014-Aug-29 10:33N 59°35' E 023°02'1414.0
2014-Aug-29 09:34N 59°39' E 023°29'1414.1
2014-Aug-29 08:33N 59°43' E 023°56'3614.5
2014-Aug-29 06:06N 59°52' E 025°04'1012.8
2014-Aug-29 05:22N 59°53' E 025°23'1414.4
2014-Aug-29 04:22N 59°55' E 025°52'1518.3
2014-Aug-29 03:34N 59°59' E 026°20'1413.7
2014-Aug-29 02:34N 60°01' E 026°47'1412.7
2014-Aug-29 01:29N 60°03' E 027°14'1413.7
2014-Aug-29 00:29N 60°10' E 027°38'7013.0
2014-Aug-28 19:04N 59°56' E 029°56'510.3
2014-Aug-28 18:33N 59°54' E 030°06'4 0.3
2014-Aug-28 06:08N 59°52' E 030°12'0 0.0
2014-Aug-27 14:16N 59°52' E 030°12'103 4.9
2014-Aug-26 17:17N 59°59' E 026°48'1216.0
2014-Aug-26 16:32N 59°57' E 026°23'4117.2
2014-Aug-26 14:10N 59°47' E 025°05'1118.0
2014-Aug-26 13:33N 59°45' E 024°44'4017.8
2014-Aug-26 11:17N 59°34' E 023°27'34916.9
2014-Aug-25 14:33N 55°36' E 015°29'2121.3
2014-Aug-25 13:33N 55°29' E 014°54'2020.0
2014-Aug-25 12:33N 55°15' E 014°27'2019.6
2014-Aug-25 11:31N 54°60' E 014°05'1919.8
2014-Aug-25 10:34N 54°55' E 013°33'1818.3
2014-Aug-25 09:34N 54°49' E 013°03'1817.7
2014-Aug-25 08:34N 54°43' E 012°34'1716.9
2014-Aug-25 07:34N 54°30' E 012°14'1515.0
2014-Aug-25 06:33N 54°24' E 011°50'10911.9
2014-Aug-24 21:21N 56°12' E 011°18'6316.4
2014-Aug-24 17:30N 57°15' E 011°31'1718.0
2014-Aug-24 16:33N 57°30' E 011°18'1919.0
2014-Aug-24 15:33N 57°43' E 010°51'1716.9
2014-Aug-24 14:33N 57°46' E 010°21'3919.5
2014-Aug-24 12:33N 57°33' E 009°11'2118.8
2014-Aug-24 11:27N 57°22' E 008°39'8918.0
2014-Aug-24 06:28N 56°02' E 007°26'1718.4
2014-Aug-24 05:33N 55°47' E 007°15'1918.7
2014-Aug-24 04:33N 55°29' E 007°04'1918.6
2014-Aug-24 03:33N 55°11' E 006°57'1918.9
2014-Aug-24 02:33N 54°53' E 007°05'1818.4
2014-Aug-24 01:33N 54°35' E 007°15'2019.5
2014-Aug-24 00:33N 54°16' E 007°25'1918.5
2014-Aug-23 23:33N 54°00' E 007°40'1010.3
2014-Aug-23 22:33N 53°53' E 007°52'1414.4
2014-Aug-23 21:34N 53°45' E 008°13'1414.4
2014-Aug-23 20:34N 53°36' E 008°31'2 1.6
2014-Aug-23 19:32N 53°34' E 008°32'  

Dump ship's entire track history